Regional Weather Roundup
Issued by NWS Jackson, KY

Home | Current Version | Previous Version | Text Only | Print | Product List | Glossary On
Versions: 1 2 3 4 5 6 7 8 9 10 11 12 13 14 15 16 17 18 19 20 21 22 23 24 25 26 27 28 29 30 31 32 33 34 35 36 37 38 39 40 41 42 43 44 45 46 47 48 49 50
000
ASUS43 KJKL 031810
RWRJKL

EAST KENTUCKY HOURLY WEATHER ROUNDUP
NATIONAL WEATHER SERVICE JACKSON KY
200 PM EDT THU SEP 03 2015

NOTE: "FAIR" INDICATES FEW OR NO CLOUDS BELOW 12,000 FEET WITH
NO SIGNIFICANT WEATHER AND/OR OBSTRUCTIONS TO VISIBILITY.

* THESE REPORTS ARE NOT UNDER NWS QUALITY CONTROL AND MAY NOT
  REPORT WEATHER SUCH AS PRECIPITATION AND FOG.

KYZ079-080-083-085-087-088-110-112-115-119-120-031900
...EASTERN KENTUCKY...

CITY           SKY/WX    TMP DP  RH WIND       PRES   REMARKS
JACKSON        MOSUNNY   85  67  54 CALM      30.05F
6HR MIN TEMP:  68; 6HR MAX TEMP:  86;

LONDON         SUNNY     90  64  42 VRB5      30.04F HX  91
6HR MIN TEMP:  65; 6HR MAX TEMP:  90;

SOMERSET*      SUNNY     86  63  45 CALM      30.04F
MONTICELLO*    SUNNY     91  66  43 CALM      30.06F HX  93
6HR MIN TEMP:  66; 6HR MAX TEMP:  91;

WILLIAMSBURG*  MOSUNNY   84  68  58 CALM      30.04
MIDDLESBORO*   CLOUDY    86  68  55 N6        30.04F
6HR MIN TEMP:  65; 6HR MAX TEMP:  87;

HARLAN APT*      N/A     86  61  42 MISG      30.06F
HAZARD APT*    PTCLDY    86  68  54 NW3       30.04F
BLACK MTN*       N/A     75  66  73 N5          N/A
PIKEVILLE APT* MOSUNNY   84  70  61 CALM      30.05F
BIG SANDY*     PTCLDY    87  71  60 NE3       30.04F HX  92
6HR MIN TEMP:  67; 6HR MAX TEMP:  87;

MOREHEAD APT*  PTCLDY    88  66  48 CALM      30.05F HX  90
$$

KYZ035-036-041-042-044-050-067-078-099-031900
...CENTRAL KENTUCKY...

CITY           SKY/WX    TMP DP  RH WIND       PRES   REMARKS
MT STERLING*   SUNNY     88  66  48 CALM      30.04F HX  90
FLEMING/MASON* PTSUNNY   84  68  58 CALM      30.03F
DANVILLE*      MOSUNNY   86  64  48 CALM      30.04F
RICHMOND*      SUNNY     88  63  42 NW5       30.03F
LEXINGTON      SUNNY     89  63  41 W7        30.03F HX  90
6HR MIN TEMP:  68; 6HR MAX TEMP:  90;

FRANKFORT      MOSUNNY   89  64  43 NW6       30.01F HX  90
6HR MIN TEMP:  67; 6HR MAX TEMP:  90;

$$

KYZ091>093-OHZ055-061-077-WVZ005-015-034-035-042-031900
...SOUTHERN OHIO/WEST VIRGINIA...

CITY           SKY/WX    TMP DP  RH WIND       PRES   REMARKS
COVINGTON      MOSUNNY   88  67  49 W5        30.02F HX  91
COLUMBUS       PTSUNNY   81  66  60 S12       29.99F
DAYTON         MOSUNNY   89  66  46 W8        30.02F HX  91
WILMINGTON     SUNNY     87  68  52 MISG      30.01F HX  90
HUNTINGTON     MOSUNNY   86  68  54 CALM      30.00F
CHARLESTON     MOSUNNY   83  66  56 CALM      30.01F
PINEVILLE*     MOSUNNY   85  71  62 MISG      30.10F
BECKLEY        MOSUNNY   78  66  66 N8        30.10F
BLUEFIELD      MOSUNNY   80  64  58 VRB6      30.12F
$$

VAZ002-007-008-TNZ017-027-036-066-071-031900
...SOUTHWEST VIRGINIA/EAST TENNESSEE...

CITY           SKY/WX    TMP DP  RH WIND       PRES   REMARKS
WISE*          PTSUNNY   79  63  57 N8        30.13F
JONESVILLE*    PTCLDY    86  66  51 N3        30.07F
ABINGDON*      PTSUNNY   82  62  50 NE3       30.08F
BRISTOL        MOSUNNY   87  65  47 N5        30.04F
KNOXVILLE      MOSUNNY   89  65  44 NE10G17   30.01F HX  91
OAK RIDGE      SUNNY     90  63  40 VRB5      30.03F HX  91
CROSSVILLE     MOSUNNY   84  63  49 NE6       30.08F
NASHVILLE      MOSUNNY   92  61  35 E5        30.01F HX  92
$$

...KEY TO REMARKS...
VSB - VISIBILITY IN MILES
WCI - WIND CHILL INDEX
HX  - HEAT INDEX

$$



USA.gov is the U.S. government's official web portal to all federal, state and local government web resources and services.